Location: Malmö
(55.6050°N, 13.0038°E)
Time: 23:39:25
(UTC+01:00)

ISS - Pass Details

Date: 02 August 2017
Orbit: 402 x 407 km, 51.6° (Epoch: 22 January)

Event Time Altitude Azimuth Distance (km) Brightness Sun altitude
Rises 22:42:24 0° 271° (W) 2,324 0.6 -10.1°
Reaches altitude 10° 22:44:38 10° 260° (W) 1,461 -0.7 -10.3°
Maximum altitude 22:47:32 29° 198° (SSW) 768 -2.7 -10.6°
Enters shadow 22:49:20 17° 148° (SSE) 1,091 -2.3 -10.7°
